When you browse on this site, cookies collect data to enhance your experience and personalize the content and advertising you see.
Visit our Privacy Policy to learn more. By continuing to use the site, you agree to this use of cookies and data.
  • en France
  • Liste des pays
  • À 7 jours
  • Température de l'eau
  • Carte météo
  • Widgets météo
  • user-avatar
    Se connecter

    Météo par heure à San Miguel de Tucumán

    Ce jour, 20 Février, Jeudi

    Heure Température Précipitation Vent Pression Humidité
    00:00 +22°C° 0 mm 0 m/s 719 mmHg 82%
    01:00 +23°C° 0 mm 1 m/s 719 mmHg 82%
    02:00 +23°C° 0 mm 1 m/s 720 mmHg 83%
    03:00 +23°C° 0 mm 1 m/s 720 mmHg 84%
    04:00 +23°C° 0 mm 1 m/s 720 mmHg 85%
    05:00 +22°C° 0 mm 1 m/s 720 mmHg 86%
    06:00 +24°C° 0 mm 1 m/s 720 mmHg 82%
    07:00 +25°C° 0 mm 1 m/s 721 mmHg 77%
    08:00 +24°C° 0 mm 0 m/s 722 mmHg 72%
    09:00 +28°C° 0 mm 1 m/s 722 mmHg 67%
    10:00 +30°C° 0 mm 2 m/s 723 mmHg 61%
    11:00 +31°C° 0 mm 2 m/s 723 mmHg 56%
    12:00 +31°C° 0.1 mm 2 m/s 723 mmHg 56%
    13:00 +31°C° 0.1 mm 3 m/s 722 mmHg 56%
    14:00 +33°C° 0.1 mm 3 m/s 722 mmHg 57%
    15:00 +30°C° 0.2 mm 3 m/s 721 mmHg 60%
    16:00 +28°C° 0.2 mm 2 m/s 721 mmHg 64%
    17:00 +27°C° 0.2 mm 2 m/s 720 mmHg 68%
    18:00 +26°C° 0 mm 2 m/s 721 mmHg 68%
    19:00 +25°C° 0 mm 2 m/s 722 mmHg 69%
    20:00 +24°C° 0 mm 2 m/s 722 mmHg 69%
    21:00 +24°C° 0 mm 1 m/s 723 mmHg 70%
    22:00 +24°C° 0 mm 1 m/s 723 mmHg 70%
    23:00 +24°C° 0 mm 1 m/s 724 mmHg 70%

    Demain, 21 Février, Vendredi

    Heure Température Précipitation Vent Pression Humidité
    00:00 +24°C° 0 mm 1 m/s 724 mmHg 70%
    01:00 +23°C° 0 mm 1 m/s 724 mmHg 70%
    02:00 +23°C° 0 mm 1 m/s 724 mmHg 69%
    09:00 +23°C° 0 mm 1 m/s 726 mmHg 68%
    10:00 +23°C° 0 mm 1 m/s 727 mmHg 65%
    11:00 +23°C° 0 mm 1 m/s 727 mmHg 63%
    12:00 +23°C° 0 mm 1 m/s 726 mmHg 61%
    13:00 +24°C° 0 mm 1 m/s 726 mmHg 59%
    14:00 +24°C° 0 mm 1 m/s 726 mmHg 58%
    15:00 +24°C° 0 mm 1 m/s 725 mmHg 58%
    16:00 +24°C° 0 mm 1 m/s 724 mmHg 59%
    17:00 +24°C° 0 mm 1 m/s 724 mmHg 59%
    18:00 +23°C° 0 mm 1 m/s 724 mmHg 61%
    19:00 +22°C° 0 mm 1 m/s 724 mmHg 64%
    20:00 +21°C° 0 mm 1 m/s 724 mmHg 66%
    21:00 +22°C° 0 mm 1 m/s 725 mmHg 65%
    22:00 +22°C° 0 mm 1 m/s 725 mmHg 64%
    23:00 +20°C° 0 mm 0 m/s 726 mmHg 64%

    Après-demain, 22 Février, Samedi

    Heure Température Précipitation Vent Pression Humidité
    00:00 +19°C° 0 mm 0 m/s 725 mmHg 65%
    01:00 +19°C° 0 mm 0 m/s 725 mmHg 66%
    02:00 +18°C° 0 mm 0 m/s 725 mmHg 67%
    03:00 +19°C° 0 mm 0 m/s 724 mmHg 67%
    04:00 +19°C° 0 mm 0 m/s 724 mmHg 66%
    05:00 +21°C° 0 mm 1 m/s 724 mmHg 65%
    06:00 +21°C° 0 mm 1 m/s 724 mmHg 66%
    07:00 +20°C° 0 mm 0 m/s 725 mmHg 66%
    08:00 +20°C° 0 mm 0 m/s 725 mmHg 67%
    09:00 +23°C° 0 mm 1 m/s 725 mmHg 63%
    10:00 +24°C° 0 mm 1 m/s 725 mmHg 59%
    11:00 +25°C° 0 mm 2 m/s 725 mmHg 55%
    12:00 +25°C° 0 mm 2 m/s 725 mmHg 52%
    13:00 +26°C° 0 mm 2 m/s 724 mmHg 49%
    14:00 +27°C° 0 mm 2 m/s 724 mmHg 46%
    15:00 +26°C° 0 mm 2 m/s 723 mmHg 49%
    16:00 +26°C° 0 mm 2 m/s 722 mmHg 51%
    17:00 +25°C° 0 mm 2 m/s 722 mmHg 53%
    18:00 +24°C° 0 mm 2 m/s 722 mmHg 56%
    19:00 +23°C° 0 mm 1 m/s 722 mmHg 59%
    20:00 +21°C° 0 mm 1 m/s 722 mmHg 62%
    21:00 +21°C° 0 mm 1 m/s 722 mmHg 64%
    22:00 +20°C° 0 mm 1 m/s 722 mmHg 66%
    23:00 +19°C° 0 mm 1 m/s 722 mmHg 69%

    23 Février, Dimanche

    Heure Température Précipitation Vent Pression Humidité
    00:00 +19°C° 0 mm 1 m/s 722 mmHg 70%
    01:00 +19°C° 0 mm 1 m/s 721 mmHg 71%
    02:00 +18°C° 0 mm 1 m/s 721 mmHg 73%
    03:00 +18°C° 0 mm 1 m/s 720 mmHg 74%
    04:00 +18°C° 0 mm 1 m/s 720 mmHg 76%
    05:00 +18°C° 0 mm 1 m/s 720 mmHg 77%
    06:00 +19°C° 0 mm 1 m/s 720 mmHg 73%
    07:00 +21°C° 0 mm 1 m/s 720 mmHg 69%
    08:00 +22°C° 0 mm 1 m/s 721 mmHg 64%
    09:00 +24°C° 0 mm 1 m/s 721 mmHg 58%
    10:00 +26°C° 0 mm 1 m/s 721 mmHg 52%
    11:00 +28°C° 0 mm 2 m/s 720 mmHg 46%
    12:00 +28°C° 0 mm 2 m/s 720 mmHg 45%
    13:00 +29°C° 0 mm 2 m/s 719 mmHg 44%
    14:00 +30°C° 0 mm 2 m/s 719 mmHg 44%
    15:00 +30°C° 0 mm 2 m/s 718 mmHg 46%
    16:00 +29°C° 0 mm 2 m/s 717 mmHg 48%
    17:00 +29°C° 0 mm 2 m/s 716 mmHg 50%
    18:00 +27°C° 0 mm 2 m/s 716 mmHg 56%
    19:00 +25°C° 0 mm 1 m/s 716 mmHg 62%
    20:00 +23°C° 0 mm 1 m/s 717 mmHg 69%
    21:00 +22°C° 0 mm 1 m/s 717 mmHg 70%
    22:00 +22°C° 0 mm 1 m/s 717 mmHg 72%
    23:00 +21°C° 0 mm 1 m/s 718 mmHg 74%

    24 Février, Lundi

    Heure Température Précipitation Vent Pression Humidité
    00:00 +21°C° 0 mm 1 m/s 717 mmHg 75%
    01:00 +21°C° 0 mm 1 m/s 717 mmHg 76%
    02:00 +20°C° 0 mm 1 m/s 716 mmHg 77%
    03:00 +20°C° 0 mm 1 m/s 716 mmHg 77%
    04:00 +20°C° 0 mm 1 m/s 716 mmHg 78%
    05:00 +20°C° 0 mm 1 m/s 716 mmHg 79%
    06:00 +21°C° 0 mm 1 m/s 717 mmHg 75%
    07:00 +21°C° 0 mm 0 m/s 717 mmHg 70%
    08:00 +22°C° 0 mm 0 m/s 717 mmHg 66%
    09:00 +26°C° 0 mm 1 m/s 717 mmHg 61%
    10:00 +28°C° 0 mm 1 m/s 717 mmHg 55%
    11:00 +31°C° 0 mm 1 m/s 717 mmHg 50%
    12:00 +31°C° 0 mm 2 m/s 717 mmHg 48%
    13:00 +32°C° 0 mm 2 m/s 716 mmHg 46%
    14:00 +34°C° 0 mm 2 m/s 715 mmHg 44%
    15:00 +34°C° 0 mm 2 m/s 715 mmHg 46%
    16:00 +34°C° 0 mm 2 m/s 714 mmHg 47%
    17:00 +32°C° 0 mm 2 m/s 713 mmHg 49%
    18:00 +30°C° 0 mm 2 m/s 714 mmHg 55%
    19:00 +28°C° 0 mm 1 m/s 714 mmHg 61%
    20:00 +26°C° 0 mm 1 m/s 714 mmHg 68%
    21:00 +25°C° 0 mm 1 m/s 715 mmHg 69%
    22:00 +25°C° 0 mm 1 m/s 715 mmHg 70%
    23:00 +24°C° 0 mm 1 m/s 715 mmHg 71%

    25 Février, Mardi

    Heure Température Précipitation Vent Pression Humidité
    00:00 +24°C° 0 mm 1 m/s 715 mmHg 71%
    01:00 +24°C° 0 mm 1 m/s 714 mmHg 72%
    02:00 +23°C° 0 mm 1 m/s 714 mmHg 72%
    03:00 +23°C° 0 mm 1 m/s 714 mmHg 73%
    04:00 +23°C° 0 mm 1 m/s 713 mmHg 73%
    05:00 +22°C° 0 mm 1 m/s 713 mmHg 74%
    06:00 +23°C° 0 mm 1 m/s 713 mmHg 71%
    07:00 +25°C° 0 mm 1 m/s 714 mmHg 68%
    08:00 +26°C° 0 mm 1 m/s 714 mmHg 65%
    09:00 +28°C° 0 mm 1 m/s 714 mmHg 59%
    10:00 +30°C° 0 mm 1 m/s 714 mmHg 54%
    11:00 +33°C° 0 mm 1 m/s 714 mmHg 48%
    12:00 +34°C° 0 mm 1 m/s 713 mmHg 46%
    13:00 +35°C° 0 mm 1 m/s 713 mmHg 44%
    14:00 +36°C° 0 mm 1 m/s 713 mmHg 42%
    15:00 +35°C° 0 mm 1 m/s 712 mmHg 44%
    16:00 +36°C° 0 mm 2 m/s 711 mmHg 45%
    17:00 +36°C° 0 mm 2 m/s 711 mmHg 47%
    18:00 +32°C° 0 mm 2 m/s 711 mmHg 54%
    19:00 +30°C° 0 mm 1 m/s 711 mmHg 62%
    20:00 +28°C° 0 mm 1 m/s 712 mmHg 70%
    21:00 +28°C° 0 mm 1 m/s 712 mmHg 69%
    22:00 +27°C° 0 mm 2 m/s 713 mmHg 68%
    23:00 +27°C° 0 mm 2 m/s 713 mmHg 68%
    Voir plus